Flag for U.S.A. Weather past 2 weeks in Sacramento, California, U.S.A.

Now
56 °F

Clear.


Feels Like: 56 °F
Forecast: 55 / 82 °F
Wind: No wind

Location: Sacramento Executive Airport

Current Time: Mar 27, 2015 at 3:45:03 AM

Latest Report: Mar 27, 2015 at 2:53 AM


Visibility: 10 mi

Pressure: 30.08 "Hg

Humidity: 87%

Dew point: 52 °F

Location of SacramentoLocation

Historic Weather in Sacramento — Graph

°F

Sacramento temperature yesterday

Maximum temperature yesterday: 82 °F (at 3:53 PM)
Minimum temperature yesterday: 50 °F (at 6:53 AM)
Average temperature yesterday: 65 °F

Past Weeks' High & Low Weather Summary

 TemperatureHumidityPressure
High82 °F (Mar 14, 3:53 PM)100% (Mar 12, 1:00 AM)30.29 "Hg (Mar 12, 1:00 AM)
Low47 °F (Mar 18, 5:53 AM)23% (Mar 19, 2:53 PM)29.95 "Hg (Mar 19, 6:53 PM)
Average63 °F64%30.10 "Hg
* Reported Mar 12 1:00 AM — Mar 27 1:53 AM, Sacramento, Weather by CustomWeather, © 2015

Note: Actual official high and low records may vary slightly from our data, if they occured in-between our weather recording intervals... More about our weather records

Advertising

Sacramento weather history for previous 24 hours

 ConditionsComfort  
Time TempWeatherWind HumidityBarometerVisibility
1:53 AM
Fri, Mar 27
57 °FClear.No wind87%30.09 "Hg10 mi
12:53 AM58 °FClear.No wind81%30.08 "Hg10 mi
11:53 PM
Thu, Mar 26
60 °FClear.No wind80%30.08 "Hg10 mi
10:53 PM61 °FClear.No wind78%30.09 "Hg10 mi
9:53 PM63 °FClear.3 mph73%30.08 "Hg10 mi
8:53 PM67 °FClear.No wind63%30.06 "Hg10 mi
7:53 PM71 °FSunny.No wind55%30.05 "Hg10 mi
6:53 PM78 °FSunny.3 mph43%30.05 "Hg10 mi
5:53 PM80 °FSunny.3 mph41%30.05 "Hg10 mi
4:53 PM81 °FSunny.6 mph39%30.06 "Hg10 mi
3:53 PM82 °FSunny.No wind34%30.07 "Hg10 mi
2:53 PM80 °FSunny.No wind34%30.09 "Hg10 mi
1:53 PM79 °FSunny.3 mph38%30.12 "Hg10 mi
12:53 PM75 °FSunny.No wind43%30.16 "Hg10 mi
11:53 AM73 °FSunny.No wind48%30.17 "Hg10 mi
10:53 AM69 °FSunny.5 mph53%30.19 "Hg10 mi
9:53 AM65 °FSunny.No wind63%30.19 "Hg10 mi
8:53 AM60 °FSunny.No wind72%30.18 "Hg10 mi
7:53 AM53 °FClear.No wind86%30.16 "Hg10 mi
6:53 AM50 °FClear.No wind89%30.15 "Hg10 mi
5:53 AM51 °FClear.No wind83%30.13 "Hg10 mi
4:53 AM53 °FClear.No wind83%30.13 "Hg10 mi
3:53 AM53 °FClear.No wind83%30.12 "Hg10 mi
Weather by CustomWeather, © 2015

See weather overviewHow to use our weather pages